Location: Maiden
(35.5760°N, 81.2120°W)
Time: 03:10:28
(UTC-04:00)

ISS - Pass Details

Date: 02 August 2020
Orbit: 418 x 420 km, 51.6° (Epoch: 12 August)

Event Time Altitude Azimuth Distance (km) Brightness Sun altitude
Rises 23:00:48 0° 296° (WNW) 2,365 1.1 -26.2°
Reaches altitude 10° 23:03:20 10° 276° (W) 1,498 -0.4 -26.5°
Enters shadow 23:04:04 13° 266° (W) 1,308 -0.9 -26.6°
